TIME,DELAY(SENSOR),PRES,OXYGEN,RAWTEMP,T(OPTODE),TCPHASE,FLUOR,BETA(BETA700),BETA(BETA412),BETA(BETA440),CDOM,C(CSC),ED(ED412.40),ED(ED444.00),ED(ED489.70),ED(ED554.30),LU(LU411.80),LU(LU443.40),LU(LU489.60),LU(LU554.10),COMP,TILTX,TILTY,CHECK
1370404676,5805,804.3200073242188000,41.9836196899414060,655.0914916992188000,4.7894358634948730,54.6446189880371100,53,99,91,79,79,14832,2147752685,2147423808,2148011785,2147877193,2147637814,2147053248,2148260169,2147193993,2291,4,13,62184
1370408272,5812,833.7700195312500000,44.7348594665527340,660.6851196289062000,4.6054167747497560,54.3024711608886700,52,98,84,79,80,14835,2147753243,2147421924,2148008685,2147876205,2147636681,2147060224,2148253878,2147198674,46,4,13,46963
1370411872,5809,839.9299926757812000,45.7698287963867200,661.6478881835938000,4.5737037658691410,54.1623687744140600,51,97,86,78,80,14831,2147753188,2147425316,2148003693,2147871744,2147639204,2147057974,2148261129,2147198400,3386,4,13,53324
1370415472,5808,859.1400146484375000,47.2047004699707000,663.2769775390625000,4.5200290679931640,53.9820098876953100,53,149,85,78,79,14828,2147757449,2147425718,2148007488,2147876242,2147636937,2147055872,2148264758,2147195373,3502,4,13,54146
1370419072,5810,858.9699707031250000,47.7030296325683600,664.2999267578125000,4.4863090515136720,53.9238281250000000,53,97,85,79,79,14830,2147751424,2147424923,2148008018,2147876964,2147639689,2147060754,2148251547,2147192950,26,4,13,63569
1370422672,5807,852.8499755859375000,48.7045211791992200,665.7775878906250000,4.4375801086425780,53.7979888916015600,53,99,90,78,79,14831,2147755419,2147424557,2148006893,2147875574,2147637312,2147055049,2148256594,2147194331,3589,4,13,35306
1370426272,5809,881.8699951171875000,48.3222198486328100,668.0433959960938000,4.3628101348876950,53.8789787292480500,53,98,86,79,80,14828,2147756224,2147426660,2148006272,2147873270,2147639168,2147055350,2148258130,2147194944,3452,4,13,58038
1370429872,5809,888.9799804687500000,48.3756294250488300,667.6279296875000000,4.3765258789062500,53.8652305603027340,53,99,85,79,79,14832,2147752612,2147426733,2148007488,2147872018,2147637979,2147054902,2148260507,2147195382,174,4,13,56757
1370433472,5814,888.8699951171875000,48.1738090515136700,667.2025756835938000,4.3905601501464840,53.8892707824707000,52,98,87,79,79,14831,2147754313,2147428681,2148007926,2147875913,2147639378,2147053485,2148259053,2147195584,74,4,13,11081
1370437072,5805,914.8099975585938000,47.5071792602539060,669.4431762695312000,4.3165888786315920,54.0147094726562500,52,97,83,79,79,14828,2147754322,2147424274,2148010322,2147873993,2147643035,2147054162,2148254390,2147194651,3577,4,13,14842
1370440672,5810,916.8499755859375000,47.0528984069824200,669.7161865234375000,4.3075728416442870,54.0793495178222660,53,100,86,79,80,14831,2147756260,2147425124,2148005248,2147873280,2147638555,2147052187,2148256402,2147197961,3562,4,13,45394
1370444272,5810,916.2399902343750000,47.6411705017089840,669.4995117187500000,4.3147320747375490,53.9969291687011700,52,100,87,78,80,14830,2147752786,2147421266,2148008219,2147875730,2147640640,2147052470,2148256603,2147197248,3534,4,13,26495
1370447872,5809,943.4799804687500000,48.3836517333984400,672.5543823242188000,4.2137780189514160,53.9252395629882800,52,98,87,78,80,14827,2147755145,2147423469,2148010377,2147870710,2147639990,2147056420,2148262162,2147197732,118,4,13,17631
1370451472,5810,948.0200195312500000,48.3716697692871100,671.5202026367188000,4.2479667663574220,53.9150810241699200,52,98,88,79,79,14824,2147753993,2147423597,2148005741,2147872283,2147636498,2147050651,2148259830,2147196699,146,4,13,30171
1370455072,5808,947.0200195312500000,48.4003715515136700,671.3900146484375000,4.2522721290588380,53.9101905822753900,53,100,85,79,81,14825,2147755072,2147423177,2148009188,2147873042,2147638692,2147049728,2148260342,2147199021,121,4,13,29621
1370458672,5810,957.7100219726562000,49.5436592102050800,675.6182861328125000,4.1124229431152340,53.8054695129394500,52,100,86,79,80,14825,2147754816,2147425197,2148007067,2147871469,2147641252,2147053010,2148256932,2147196123,345,4,13,26708
1370462272,5812,964.7100219726562000,49.8499488830566400,676.3872070312500000,4.0869708061218260,53.7748794555664060,52,99,86,78,80,14825,2147755803,2147424749,2148008210,2147872612,2147641929,2147055689,2148259117,2147195227,79,4,13,40683
1370465872,5810,971.0700073242188000,49.8132095336914060,674.7561035156250000,4.1409568786621090,53.7530517578125000,52,98,83,79,81,14824,2147753398,2147421952,2148011392,2147874907,2147640064,2147054674,2148261641,2147194907,155,4,13,39427
1370469472,5809,970.7700195312500000,50.0391311645507800,675.4000854492188000,4.1196479797363280,53.7309303283691400,51,99,84,80,80,14823,2147755227,2147423058,2148009618,2147874322,2147643254,2147053385,2148258240,2147196315,9,4,13,43974
1370473072,5808,967.3900146484375000,49.6682815551757800,676.4108886718750000,4.0861849784851070,53.7944488525390600,52,98,91,78,79,14822,2147752484,2147424786,2148010742,2147872420,2147642770,2147054582,2148258642,2147194953,204,4,13,13651
1370476672,5809,974.2899780273438000,49.9893493652343750,674.8256835937500000,4.1386528015136720,53.7296600341796900,53,99,86,79,79,14822,2147755382,2147423195,2148010020,2147875913,2147642102,2147050861,2148262500,2147197312,235,4,13,57958
1370480272,5807,968.4699707031250000,49.9466514587402340,675.4879150390625000,4.1167411804199220,53.7438507080078100,52,99,87,78,78,14812,2147757385,2147425344,2148010148,2147872786,2147639625,2147049682,2148258532,2147193947,11,4,13,55694
1370483872,5811,974.0800170898438000,50.0855598449707000,675.5678100585938000,4.1140961647033690,53.7292900085449200,52,97,87,78,80,14811,2147756626,2147424886,2148010368,2147872109,2147643291,2147055259,2148257060,2147195876,3207,4,13,52464
1370487472,5808,973.4400024414062000,49.5180015563964840,675.5595092773438000,4.1143698692321780,53.8049888610839840,52,100,87,79,80,14812,2147754477,2147424027,2148009307,2147871177,2147642633,2147057691,2148257846,2147196068,403,4,13,15039
1370491072,5810,977.7800292968750000,49.2912292480468750,675.4932861328125000,4.1165599822998050,53.8393783569335940,52,99,87,79,80,14814,2147754724,2147425225,2148009636,2147875739,2147639250,2147055021,2148259657,2147197741,240,4,13,36461
1370494672,5810,975.8499755859375000,49.1439285278320300,674.4044189453125000,4.1525940895080570,53.8418998718261700,52,97,88,81,81,14812,2147755520,2147426422,2148007460,2147874733,2147641846,2147052205,2148263643,2147196489,3227,4,13,53554
1370498272,5812,977.4699707031250000,49.0226783752441400,674.4146728515625000,4.1522521972656250,53.8630104064941400,53,99,86,80,80,14706,2147752813,2147425206,2148009691,2147871414,2147640612,2147050404,2148264356,2147199689,95,4,13,4035
1370501872,5808,980.1799926757812000,49.2759017944335940,674.4157714843750000,4.1522178649902340,53.8225593566894500,52,98,87,78,81,14706,2147754486,2147425289,2148008128,2147874752,2147641024,2147054454,2148256182,2147198134,214,4,13,13959
1370505472,5809,980.5300292968750000,48.7273101806640600,673.5440063476562000,4.1810531616210940,53.8910102844238300,52,99,84,78,80,14706,2147754121,2147428141,2148010880,2147871241,2147641389,2147060480,2148257956,2147198198,231,4,13,49394
1370509072,5807,973.5599975585938000,49.2726516723632800,675.2537231445312000,4.1244931221008300,53.8360404968261700,52,97,87,77,80,14707,2147756763,2147425106,2148007433,2147875309,2147639286,2147054299,2148262153,2147195200,353,4,13,11601
1370512672,5811,973.4699707031250000,49.0720901489257800,676.0432739257812000,4.0983581542968750,53.8730697631835940,52,97,85,79,80,14709,2147754130,2147424594,2148007168,2147873645,2147644544,2147059675,2148264265,2147197138,98,4,13,16916
1370516272,5809,972.7800292968750000,49.6338806152343750,676.0966186523438000,4.0965919494628910,53.7947616577148440,54,98,83,79,80,14707,2147756050,2147424868,2148009472,2147874386,2147641261,2147056219,2148264173,2147194587,29,4,13,40656
1370519872,5812,965.5599975585938000,49.7868194580078100,676.9699096679688000,4.0676779747009280,53.7855491638183600,52,98,84,78,81,14709,2147757284,2147422893,2148010934,2147873289,2147639945,2147050066,2148258596,2147199616,50,4,13,40271
1370523472,5809,979.1099853515625000,50.3928413391113300,676.3062133789062000,4.0896530151367190,53.6985816955566400,52,97,83,81,80,14706,2147752064,2147425718,2148007158,2147874834,2147641801,2147054646,2148260233,2147195273,3528,4,13,9250
1370527072,5806,974.1599731445312000,49.9987716674804700,675.5480957031250000,4.1147480010986330,53.7418289184570300,52,98,88,80,79,14705,2147758921,2147425563,2148010724,2147872795,2147639652,2147051520,2148259200,2147195620,3363,4,13,65084
1370530672,5809,976.9199829101562000,49.4837303161621100,674.9088745117188000,4.1359019279479980,53.8023796081543000,52,98,87,79,80,14710,2147756653,2147427309,2148009691,2147875666,2147640192,2147053924,2148263360,2147196425,3446,4,13,63461
1370534272,5808,981.3599853515625000,49.2826614379882800,674.7553710937500000,4.1409778594970700,53.8262710571289060,52,98,88,79,80,14707,2147758308,2147425965,2148010267,2147874084,2147641133,2147058130,2148261705,2147196690,3436,4,13,46374
1370537872,5807,987.7700195312500000,49.5422706604003900,674.3925170898438000,4.1529870033264160,53.7872810363769500,52,98,90,78,79,14705,2147758692,2147426688,2148010962,2147872630,2147639497,2147057280,2148259483,2147198592,115,4,13,8155
1370541472,5809,979.8599853515625000,48.5451698303222660,673.7473144531250000,4.1743321418762210,53.9201202392578100,52,98,87,78,79,14705,2147757677,2147425481,2148006226,2147872658,2147641664,2147056000,2148259584,2147197440,344,4,13,2419
1370545072,5814,976.2399902343750000,49.3929100036621100,674.9617919921875000,4.1341500282287600,53.8189010620117200,52,98,85,79,80,14701,2147753865,2147425225,2148008219,2147873097,2147642377,2147051812,2148262802,2147196763,3310,4,13,45802
1370548672,5804,965.0000000000000000,49.6897392272949200,676.7313232421875000,4.0755810737609860,53.7982101440429700,53,98,86,79,79,14704,2147757924,2147427474,2148009042,2147872192,2147640704,2147049993,2148262710,2147201005,172,4,13,37113
1370549456,5809,968.5300292968750000,49.9274215698242200,677.0791015625000000,4.0640621185302730,53.7716789245605500,52,96,85,79,81,14804,2147755401,2147426678,2148005632,2147874468,2147638811,2147052717,2148264768,2147198016,2792,4,13,17086
